Location: Newark
(48.2308°N, 120.8549°W)
Time: 23:00:50
(UTC+00:00)

Transit 2A Rocket - Pass Details

Date: 26 May 2020
Orbit: 584 x 919 km, 66.7° (Epoch: 10 July)

Event Time Altitude Azimuth Distance (km) Brightness Sun altitude
Rises 12:30:59 0° 316° (NW) 3,360 8.2 1.9°
Reaches altitude 10° 12:34:55 10° 344° (NNW) 2,497 7.9 2.5°
Maximum altitude 12:37:35 13° 11° (N) 2,313 8.2 2.9°
Drops below altitude 10° 12:40:20 10° 39° (NE) 2,570 9.2 3.3°
Sets 12:44:30 0° 65° (ENE) 3,547 11.5 3.9°
